Time,TemperatureF,DewpointF,PressureIn,WindDirection,WindDirectionDegrees,WindSpeedMPH,WindSpeedGustMPH,Humidity,HourlyPrecipIn,Conditions,Clouds,dailyrainin,SoftwareType,DateUTC
2013-04-08 00:12:00,46.0,42.0,30.07,South,190,20.0,25.0,87,-99.99,,,-99.99,,2013-04-08 04:12:00,
2013-04-08 00:22:00,46.0,42.0,30.07,South,190,20.0,25.0,87,-99.99,,,-99.99,,2013-04-08 04:22:00,
2013-04-08 00:32:00,46.0,42.0,30.07,South,190,20.0,25.0,87,-99.99,,,-99.99,,2013-04-08 04:32:00,
2013-04-08 00:43:00,46.0,42.0,30.07,South,190,20.0,25.0,87,-99.99,,,-99.99,,2013-04-08 04:43:00,
2013-04-08 00:50:00,47.0,43.0,30.07,South,190,20.0,25.0,86,-99.99,,,-99.99,,2013-04-08 04:50:00,
2013-04-08 01:11:00,47.0,43.0,30.07,South,190,20.0,25.0,86,-99.99,,,-99.99,,2013-04-08 05:11:00,
2013-04-08 01:21:00,47.0,43.0,30.07,South,190,20.0,25.0,86,-99.99,,,-99.99,,2013-04-08 05:21:00,
2013-04-08 01:31:00,47.0,43.0,30.07,South,190,20.0,25.0,86,-99.99,,,-99.99,,2013-04-08 05:31:00,
2013-04-08 01:42:00,47.0,43.0,30.07,South,190,20.0,25.0,86,-99.99,,,-99.99,,2013-04-08 05:42:00,
2013-04-08 01:50:00,47.0,43.0,30.04,SSW,200,20.0,25.0,87,-99.99,,,-99.99,,2013-04-08 05:50:00,
2013-04-08 02:11:00,47.0,43.0,30.04,SSW,200,20.0,25.0,87,-99.99,,,-99.99,,2013-04-08 06:11:00,
2013-04-08 02:21:00,47.0,43.0,30.04,SSW,200,20.0,25.0,87,-99.99,,,-99.99,,2013-04-08 06:21:00,
2013-04-08 02:32:00,47.0,43.0,30.04,SSW,200,20.0,25.0,87,-99.99,,,-99.99,,2013-04-08 06:32:00,
2013-04-08 02:42:00,47.0,43.0,30.04,SSW,200,20.0,25.0,87,-99.99,,,-99.99,,2013-04-08 06:42:00,
2013-04-08 02:50:00,47.0,44.0,30.01,SSW,200,25.0,29.0,87,-99.99,,,-99.99,,2013-04-08 06:50:00,
2013-04-08 03:11:00,47.0,44.0,30.01,SSW,200,25.0,29.0,87,-99.99,,,-99.99,,2013-04-08 07:11:00,
2013-04-08 03:21:00,47.0,44.0,30.01,SSW,200,25.0,29.0,87,-99.99,,,-99.99,,2013-04-08 07:21:00,
2013-04-08 03:32:00,47.0,44.0,30.01,SSW,200,25.0,29.0,87,-99.99,,,-99.99,,2013-04-08 07:32:00,
2013-04-08 03:42:00,47.0,44.0,30.01,SSW,200,25.0,29.0,87,-99.99,,,-99.99,,2013-04-08 07:42:00,
2013-04-08 03:50:00,47.0,44.0,30.01,SSW,200,20.0,22.0,90,-99.99,,,-99.99,,2013-04-08 07:50:00,
2013-04-08 04:31:00,47.0,44.0,30.01,SSW,200,20.0,22.0,90,-99.99,,,-99.99,,2013-04-08 08:31:00,
2013-04-08 04:42:00,47.0,44.0,30.01,SSW,200,20.0,22.0,90,-99.99,,,-99.99,,2013-04-08 08:42:00,
2013-04-08 04:50:00,47.0,45.0,29.99,SSW,210,18.0,20.0,92,-99.99,,,-99.99,,2013-04-08 08:50:00,
2013-04-08 05:21:00,47.0,45.0,29.99,SSW,210,18.0,20.0,92,-99.99,,,-99.99,,2013-04-08 09:21:00,
2013-04-08 05:32:00,47.0,45.0,29.99,SSW,210,18.0,20.0,92,-99.99,,,-99.99,,2013-04-08 09:32:00,
2013-04-08 05:42:00,47.0,45.0,29.99,SSW,210,18.0,20.0,92,-99.99,,,-99.99,,2013-04-08 09:42:00,
2013-04-08 05:50:00,47.0,44.0,29.99,SW,220,18.0,18.0,92,-99.99,,,-99.99,,2013-04-08 09:50:00,
2013-04-08 06:12:00,47.0,44.0,29.99,SW,220,18.0,18.0,92,-99.99,,,-99.99,,2013-04-08 10:12:00,
2013-04-08 06:22:00,47.0,44.0,29.99,SW,220,18.0,18.0,92,-99.99,,,-99.99,,2013-04-08 10:22:00,
2013-04-08 06:32:00,47.0,44.0,29.99,SW,220,18.0,18.0,92,-99.99,,,-99.99,,2013-04-08 10:32:00,
2013-04-08 06:41:00,47.0,44.0,29.99,SW,220,18.0,18.0,92,-99.99,,,-99.99,,2013-04-08 10:41:00,
2013-04-08 06:50:00,46.0,44.0,29.99,SW,220,18.0,20.0,93,-99.99,,,-99.99,,2013-04-08 10:50:00,
2013-04-08 07:11:00,46.0,44.0,29.99,SW,220,18.0,20.0,93,-99.99,,,-99.99,,2013-04-08 11:11:00,
2013-04-08 07:22:00,46.0,44.0,29.99,SW,220,18.0,20.0,93,-99.99,,,-99.99,,2013-04-08 11:22:00,
2013-04-08 07:31:00,46.0,44.0,29.99,SW,220,18.0,20.0,93,-99.99,,,-99.99,,2013-04-08 11:31:00,
2013-04-08 07:42:00,46.0,44.0,29.99,SW,220,18.0,20.0,93,-99.99,,,-99.99,,2013-04-08 11:42:00,
2013-04-08 07:50:00,45.0,43.0,30.01,WSW,240,13.0,16.0,93,-99.99,,,-99.99,,2013-04-08 11:50:00,
2013-04-08 08:11:00,45.0,43.0,30.01,WSW,240,13.0,16.0,93,-99.99,,,-99.99,,2013-04-08 12:11:00,
2013-04-08 08:21:00,45.0,43.0,30.01,WSW,240,13.0,16.0,93,-99.99,,,-99.99,,2013-04-08 12:21:00,
2013-04-08 08:32:00,45.0,43.0,30.01,WSW,240,13.0,16.0,93,-99.99,,,-99.99,,2013-04-08 12:32:00,
2013-04-08 08:42:00,45.0,43.0,30.01,WSW,240,13.0,16.0,93,-99.99,,,-99.99,,2013-04-08 12:42:00,
2013-04-08 08:50:00,44.0,42.0,30.03,WSW,250,11.0,13.0,93,-99.99,,,-99.99,,2013-04-08 12:50:00,
2013-04-08 09:11:00,44.0,42.0,30.03,WSW,250,11.0,13.0,93,-99.99,,,-99.99,,2013-04-08 13:11:00,
2013-04-08 09:31:00,44.0,42.0,30.03,WSW,250,11.0,13.0,93,-99.99,,,-99.99,,2013-04-08 13:31:00,
2013-04-08 09:42:00,44.0,42.0,30.03,WSW,250,11.0,13.0,93,-99.99,,,-99.99,,2013-04-08 13:42:00,
2013-04-08 09:50:00,44.0,43.0,30.04,WSW,240,7.0,9.0,94,-99.99,,,-99.99,,2013-04-08 13:50:00,
2013-04-08 10:11:00,44.0,43.0,30.04,WSW,240,7.0,9.0,94,-99.99,,,-99.99,,2013-04-08 14:11:00,
2013-04-08 10:21:00,44.0,43.0,30.04,WSW,240,7.0,9.0,94,-99.99,,,-99.99,,2013-04-08 14:21:00,
2013-04-08 10:31:00,44.0,43.0,30.04,WSW,240,7.0,9.0,94,-99.99,,,-99.99,,2013-04-08 14:31:00,
2013-04-08 10:41:00,44.0,43.0,30.04,WSW,240,7.0,9.0,94,-99.99,,,-99.99,,2013-04-08 14:41:00,
2013-04-08 11:11:00,45.0,43.0,30.04,West,260,7.0,7.0,93,-99.99,,,-99.99,,2013-04-08 15:11:00,
2013-04-08 11:21:00,45.0,43.0,30.04,West,260,7.0,7.0,93,-99.99,,,-99.99,,2013-04-08 15:21:00,
2013-04-08 11:32:00,45.0,43.0,30.04,West,260,7.0,7.0,93,-99.99,,,-99.99,,2013-04-08 15:32:00,
2013-04-08 12:12:00,44.0,43.0,30.06,WSW,250,7.0,9.0,93,-99.99,,,-99.99,,2013-04-08 16:12:00,
2013-04-08 12:22:00,44.0,43.0,30.06,WSW,250,7.0,9.0,93,-99.99,,,-99.99,,2013-04-08 16:22:00,
2013-04-08 12:32:00,44.0,43.0,30.06,WSW,250,7.0,9.0,93,-99.99,,,-99.99,,2013-04-08 16:32:00,
2013-04-08 13:22:00,45.0,43.0,30.05,WSW,240,4.0,7.0,90,-99.99,,,-99.99,,2013-04-08 17:22:00,
2013-04-08 13:32:00,45.0,43.0,30.05,WSW,240,4.0,7.0,90,-99.99,,,-99.99,,2013-04-08 17:32:00,
2013-04-08 14:11:00,46.0,43.0,30.05,SSW,210,4.0,7.0,89,-99.99,,,-99.99,,2013-04-08 18:11:00,
2013-04-08 14:22:00,46.0,43.0,30.05,SSW,210,4.0,7.0,89,-99.99,,,-99.99,,2013-04-08 18:22:00,
2013-04-08 14:32:00,46.0,43.0,30.05,SSW,210,4.0,7.0,89,-99.99,,,-99.99,,2013-04-08 18:32:00,
2013-04-08 15:11:00,46.0,43.0,30.06,SSW,210,4.0,4.0,88,-99.99,,,-99.99,,2013-04-08 19:11:00,
2013-04-08 15:21:00,46.0,43.0,30.06,SSW,210,4.0,4.0,88,-99.99,,,-99.99,,2013-04-08 19:21:00,
2013-04-08 16:11:00,46.0,43.0,30.06,SSW,200,4.0,4.0,87,-99.99,,,-99.99,,2013-04-08 20:11:00,
2013-04-08 16:50:00,47.0,42.0,30.07,SE,140,4.0,7.0,81,-99.99,,,-99.99,,2013-04-08 20:50:00,
2013-04-08 17:11:00,47.0,42.0,30.07,SE,140,4.0,7.0,81,-99.99,,,-99.99,,2013-04-08 21:11:00,
2013-04-08 17:21:00,47.0,42.0,30.07,SE,140,4.0,7.0,81,-99.99,,,-99.99,,2013-04-08 21:21:00,
2013-04-08 17:32:00,47.0,42.0,30.07,SE,140,4.0,7.0,81,-99.99,,,-99.99,,2013-04-08 21:32:00,
2013-04-08 17:42:00,47.0,42.0,30.07,SE,140,4.0,7.0,81,-99.99,,,-99.99,,2013-04-08 21:42:00,
2013-04-08 17:50:00,47.0,41.0,30.08,ESE,110,7.0,7.0,79,-99.99,,,-99.99,,2013-04-08 21:50:00,
2013-04-08 18:12:00,47.0,41.0,30.08,ESE,110,7.0,7.0,79,-99.99,,,-99.99,,2013-04-08 22:12:00,
2013-04-08 18:22:00,47.0,41.0,30.08,ESE,110,7.0,7.0,79,-99.99,,,-99.99,,2013-04-08 22:22:00,
2013-04-08 18:31:00,47.0,41.0,30.08,ESE,110,7.0,7.0,79,-99.99,,,-99.99,,2013-04-08 22:31:00,
2013-04-08 18:42:00,47.0,41.0,30.08,ESE,110,7.0,7.0,79,-99.99,,,-99.99,,2013-04-08 22:42:00,
2013-04-08 18:50:00,45.0,41.0,30.09,East,100,7.0,9.0,83,-99.99,,,-99.99,,2013-04-08 22:50:00,
2013-04-08 19:11:00,45.0,41.0,30.09,East,100,7.0,9.0,83,-99.99,,,-99.99,,2013-04-08 23:11:00,
2013-04-08 19:31:00,45.0,41.0,30.09,East,100,7.0,9.0,83,-99.99,,,-99.99,,2013-04-08 23:31:00,
2013-04-08 19:41:00,45.0,41.0,30.09,East,100,7.0,9.0,83,-99.99,,,-99.99,,2013-04-08 23:41:00,
2013-04-08 19:50:00,45.0,41.0,30.11,ESE,120,7.0,7.0,87,-99.99,,,-99.99,,2013-04-08 23:50:00,
2013-04-08 20:11:00,45.0,41.0,30.11,ESE,120,7.0,7.0,87,-99.99,,,-99.99,,2013-04-09 00:11:00,
2013-04-08 20:21:00,45.0,41.0,30.11,ESE,120,7.0,7.0,87,-99.99,,,-99.99,,2013-04-09 00:21:00,
2013-04-08 20:31:00,45.0,41.0,30.11,ESE,120,7.0,7.0,87,-99.99,,,-99.99,,2013-04-09 00:31:00,
2013-04-08 20:41:00,45.0,41.0,30.11,ESE,120,7.0,7.0,87,-99.99,,,-99.99,,2013-04-09 00:41:00,
2013-04-08 20:50:00,45.0,41.0,30.12,SE,140,7.0,9.0,86,-99.99,,,-99.99,,2013-04-09 00:50:00,
2013-04-08 21:11:00,45.0,41.0,30.12,SE,140,7.0,9.0,86,-99.99,,,-99.99,,2013-04-09 01:11:00,
2013-04-08 21:21:00,45.0,41.0,30.12,SE,140,7.0,9.0,86,-99.99,,,-99.99,,2013-04-09 01:21:00,
2013-04-08 21:31:00,45.0,41.0,30.12,SE,140,7.0,9.0,86,-99.99,,,-99.99,,2013-04-09 01:31:00,
2013-04-08 21:41:00,45.0,41.0,30.12,SE,140,7.0,9.0,86,-99.99,,,-99.99,,2013-04-09 01:41:00,
2013-04-08 21:50:00,45.0,41.0,30.12,SE,130,7.0,9.0,87,-99.99,,,-99.99,,2013-04-09 01:50:00,
2013-04-08 22:11:00,45.0,41.0,30.12,SE,130,7.0,9.0,87,-99.99,,,-99.99,,2013-04-09 02:11:00,
2013-04-08 22:21:00,45.0,41.0,30.12,SE,130,7.0,9.0,87,-99.99,,,-99.99,,2013-04-09 02:21:00,
2013-04-08 22:32:00,45.0,41.0,30.12,SE,130,7.0,9.0,87,-99.99,,,-99.99,,2013-04-09 02:32:00,
2013-04-08 22:42:00,45.0,41.0,30.12,SE,130,7.0,9.0,87,-99.99,,,-99.99,,2013-04-09 02:42:00,
2013-04-08 22:50:00,45.0,41.0,30.13,SSE,150,9.0,9.0,85,-99.99,,,-99.99,,2013-04-09 02:50:00,
2013-04-08 23:11:00,45.0,41.0,30.13,SSE,150,9.0,9.0,85,-99.99,,,-99.99,,2013-04-09 03:11:00,
2013-04-08 23:21:00,45.0,41.0,30.13,SSE,150,9.0,9.0,85,-99.99,,,-99.99,,2013-04-09 03:21:00,
2013-04-08 23:32:00,45.0,41.0,30.13,SSE,150,9.0,9.0,85,-99.99,,,-99.99,,2013-04-09 03:32:00,
2013-04-08 23:42:00,45.0,41.0,30.13,SSE,150,9.0,9.0,85,-99.99,,,-99.99,,2013-04-09 03:42:00,
2013-04-08 23:50:00,45.0,40.0,30.11,SE,140,13.0,13.0,84,-99.99,,,-99.99,,2013-04-09 03:50:00,